When you browse on this site, cookies collect data to enhance your experience and personalize the content and advertising you see.
Visit our Privacy Policy to learn more. By continuing to use the site, you agree to this use of cookies and data.
  • In Czech Republic
  • List of Countries
  • For 7 days
  • Water Temperature
  • Weather Map
  • Weather Widgets
  • user-avatar
    Login

    Hourly Weather Klagenfurt

    Today, 23 August, Friday

    Time Temperature Precipitation Wind Pressure Humidity
    00:00 +15°C° 0.1 mm 1 mps 695 mmHg 96%
    01:00 +15°C° 0 mm 1 mps 695 mmHg 96%
    02:00 +15°C° 0.3 mm 1 mps 695 mmHg 96%
    03:00 +15°C° 0.3 mm 1 mps 695 mmHg 96%
    04:00 +15°C° 0.3 mm 1 mps 695 mmHg 97%
    05:00 +15°C° 0.3 mm 1 mps 695 mmHg 96%
    06:00 +16°C° 0.3 mm 1 mps 695 mmHg 95%
    07:00 +18°C° 0 mm 1 mps 696 mmHg 95%
    08:00 +19°C° 0.2 mm 1 mps 696 mmHg 92%
    09:00 +20°C° 0.2 mm 1 mps 696 mmHg 89%
    10:00 +21°C° 0.2 mm 1 mps 697 mmHg 85%
    11:00 +22°C° 0.1 mm 1 mps 697 mmHg 81%
    12:00 +23°C° 0.1 mm 1 mps 697 mmHg 76%
    13:00 +24°C° 0.1 mm 2 mps 696 mmHg 71%
    14:00 +24°C° 0.2 mm 1 mps 696 mmHg 72%
    15:00 +24°C° 0.2 mm 1 mps 696 mmHg 73%
    16:00 +24°C° 0.2 mm 1 mps 696 mmHg 74%
    17:00 +22°C° 0.6 mm 1 mps 695 mmHg 80%
    18:00 +21°C° 0.6 mm 1 mps 695 mmHg 87%
    19:00 +19°C° 0.6 mm 1 mps 695 mmHg 94%
    20:00 +19°C° 0.6 mm 1 mps 695 mmHg 94%
    21:00 +18°C° 0.6 mm 1 mps 695 mmHg 95%
    22:00 +18°C° 0.6 mm 1 mps 695 mmHg 95%
    23:00 +16°C° 0.3 mm 1 mps 694 mmHg 95%

    Tomorrow, 24 August, Saturday

    Time Temperature Precipitation Wind Pressure Humidity
    00:00 +16°C° 0.3 mm 1 mps 694 mmHg 95%
    01:00 +16°C° 0.3 mm 1 mps 694 mmHg 95%
    02:00 +16°C° 0.1 mm 1 mps 694 mmHg 95%
    03:00 +16°C° 0.1 mm 1 mps 694 mmHg 95%
    04:00 +16°C° 0.1 mm 1 mps 694 mmHg 95%
    05:00 +16°C° 0.3 mm 1 mps 694 mmHg 95%
    06:00 +18°C° 0.3 mm 1 mps 694 mmHg 95%
    07:00 +18°C° 0.3 mm 1 mps 694 mmHg 95%
    08:00 +20°C° 0.2 mm 1 mps 694 mmHg 89%
    09:00 +22°C° 0.2 mm 1 mps 695 mmHg 84%
    10:00 +23°C° 0.2 mm 1 mps 695 mmHg 78%
    11:00 +24°C° 1.3 mm 1 mps 695 mmHg 76%
    12:00 +24°C° 1.3 mm 1 mps 695 mmHg 74%
    13:00 +25°C° 1.3 mm 1 mps 694 mmHg 72%
    14:00 +25°C° 0.8 mm 1 mps 694 mmHg 72%
    15:00 +25°C° 0.8 mm 1 mps 694 mmHg 71%
    16:00 +23°C° 0.8 mm 0 mps 694 mmHg 71%
    17:00 +21°C° 0.4 mm 0 mps 693 mmHg 76%
    18:00 +19°C° 0.4 mm 0 mps 693 mmHg 81%
    19:00 +19°C° 0.4 mm 1 mps 692 mmHg 86%
    20:00 +19°C° 0 mm 1 mps 693 mmHg 86%
    21:00 +18°C° 0 mm 1 mps 693 mmHg 86%
    22:00 +18°C° 0 mm 1 mps 693 mmHg 86%
    23:00 +16°C° 0 mm 1 mps 693 mmHg 87%

    Day after tomorrow, 25 August, Sunday

    Time Temperature Precipitation Wind Pressure Humidity
    00:00 +16°C° 0 mm 1 mps 692 mmHg 87%
    01:00 +15°C° 0 mm 1 mps 692 mmHg 88%
    02:00 +15°C° 0 mm 1 mps 692 mmHg 88%
    03:00 +15°C° 0 mm 1 mps 692 mmHg 89%
    04:00 +15°C° 0 mm 1 mps 692 mmHg 89%
    05:00 +16°C° 0 mm 1 mps 692 mmHg 88%
    06:00 +18°C° 0 mm 1 mps 692 mmHg 87%
    07:00 +19°C° 0 mm 1 mps 692 mmHg 86%
    08:00 +21°C° 0 mm 1 mps 693 mmHg 77%
    09:00 +23°C° 0 mm 1 mps 693 mmHg 69%
    10:00 +25°C° 0 mm 1 mps 694 mmHg 60%
    11:00 +26°C° 0.4 mm 1 mps 694 mmHg 58%
    12:00 +26°C° 0.4 mm 1 mps 694 mmHg 57%
    13:00 +27°C° 0.4 mm 1 mps 694 mmHg 55%
    14:00 +27°C° 0.6 mm 1 mps 693 mmHg 58%
    15:00 +26°C° 0.6 mm 1 mps 693 mmHg 61%
    16:00 +26°C° 0.6 mm 1 mps 693 mmHg 63%
    17:00 +24°C° 0.4 mm 1 mps 692 mmHg 70%
    18:00 +22°C° 0.4 mm 1 mps 692 mmHg 76%
    19:00 +20°C° 0.4 mm 1 mps 691 mmHg 83%
    20:00 +19°C° 0.2 mm 1 mps 692 mmHg 84%
    21:00 +19°C° 0.2 mm 1 mps 692 mmHg 85%
    22:00 +18°C° 0.2 mm 1 mps 692 mmHg 86%
    23:00 +18°C° 0.1 mm 1 mps 692 mmHg 87%

    26 August, Monday

    Time Temperature Precipitation Wind Pressure Humidity
    00:00 +16°C° 0.1 mm 1 mps 692 mmHg 88%
    01:00 +16°C° 0.1 mm 1 mps 692 mmHg 89%
    02:00 +16°C° 0 mm 1 mps 692 mmHg 90%
    03:00 +16°C° 0 mm 1 mps 692 mmHg 90%
    04:00 +16°C° 0 mm 1 mps 691 mmHg 91%
    05:00 +16°C° 0 mm 1 mps 692 mmHg 90%
    06:00 +18°C° 0 mm 1 mps 692 mmHg 89%
    07:00 +19°C° 0 mm 1 mps 692 mmHg 88%
    08:00 +21°C° 0.1 mm 1 mps 693 mmHg 80%
    09:00 +23°C° 0.1 mm 1 mps 693 mmHg 72%
    10:00 +25°C° 0.1 mm 1 mps 693 mmHg 65%
    11:00 +25°C° 0.8 mm 1 mps 693 mmHg 63%
    12:00 +26°C° 0.8 mm 1 mps 693 mmHg 62%
    13:00 +27°C° 0.8 mm 1 mps 693 mmHg 60%
    14:00 +26°C° 1 mm 1 mps 693 mmHg 65%
    15:00 +25°C° 1 mm 1 mps 693 mmHg 70%
    16:00 +25°C° 1 mm 1 mps 692 mmHg 74%
    17:00 +23°C° 0.2 mm 1 mps 692 mmHg 79%
    18:00 +21°C° 0.2 mm 1 mps 692 mmHg 84%
    19:00 +18°C° 0.2 mm 0 mps 691 mmHg 89%
    20:00 +17°C° 0.1 mm 0 mps 692 mmHg 89%
    21:00 +17°C° 0.1 mm 0 mps 692 mmHg 90%
    22:00 +18°C° 0.1 mm 1 mps 692 mmHg 90%
    23:00 +18°C° 0 mm 1 mps 692 mmHg 90%

    27 August, Tuesday

    Time Temperature Precipitation Wind Pressure Humidity
    00:00 +18°C° 0 mm 1 mps 692 mmHg 91%
    01:00 +16°C° 0 mm 1 mps 692 mmHg 91%
    02:00 +16°C° 0 mm 1 mps 691 mmHg 91%
    03:00 +16°C° 0 mm 1 mps 691 mmHg 92%
    04:00 +16°C° 0 mm 1 mps 691 mmHg 92%
    05:00 +18°C° 0 mm 1 mps 692 mmHg 91%
    06:00 +16°C° 0 mm 0 mps 692 mmHg 90%
    07:00 +17°C° 0 mm 0 mps 692 mmHg 88%
    08:00 +21°C° 0.2 mm 1 mps 693 mmHg 81%
    09:00 +23°C° 0.2 mm 1 mps 693 mmHg 73%
    10:00 +25°C° 0.2 mm 1 mps 694 mmHg 66%
    11:00 +26°C° 0.8 mm 1 mps 694 mmHg 64%
    12:00 +27°C° 0.8 mm 1 mps 694 mmHg 61%
    13:00 +27°C° 0.8 mm 1 mps 694 mmHg 58%
    14:00 +27°C° 0.4 mm 1 mps 693 mmHg 59%
    15:00 +27°C° 0.4 mm 1 mps 693 mmHg 59%
    16:00 +27°C° 0.4 mm 1 mps 693 mmHg 60%
    17:00 +25°C° 0.2 mm 1 mps 692 mmHg 67%
    18:00 +23°C° 0.2 mm 1 mps 692 mmHg 75%
    19:00 +21°C° 0.2 mm 1 mps 692 mmHg 83%
    20:00 +20°C° 0.3 mm 1 mps 692 mmHg 84%
    21:00 +19°C° 0.3 mm 1 mps 692 mmHg 86%
    22:00 +19°C° 0.3 mm 1 mps 692 mmHg 88%
    23:00 +18°C° 0.3 mm 1 mps 692 mmHg 89%

    28 August, Wednesday

    Time Temperature Precipitation Wind Pressure Humidity
    00:00 +18°C° 0.3 mm 1 mps 692 mmHg 89%
    01:00 +18°C° 0.3 mm 1 mps 692 mmHg 90%
    02:00 +16°C° 0 mm 1 mps 692 mmHg 90%
    03:00 +16°C° 0 mm 1 mps 692 mmHg 90%
    04:00 +16°C° 0 mm 1 mps 691 mmHg 91%
    05:00 +18°C° 0 mm 1 mps 692 mmHg 89%
    06:00 +19°C° 0 mm 1 mps 692 mmHg 88%
    07:00 +18°C° 0 mm 0 mps 692 mmHg 87%
    08:00 +20°C° 0 mm 0 mps 693 mmHg 78%
    09:00 +24°C° 0 mm 1 mps 693 mmHg 69%
    10:00 +27°C° 0 mm 1 mps 694 mmHg 60%
    11:00 +27°C° 0.4 mm 1 mps 693 mmHg 59%
    12:00 +28°C° 0.4 mm 1 mps 693 mmHg 58%
    13:00 +28°C° 0.4 mm 1 mps 693 mmHg 57%
    14:00 +27°C° 0.7 mm 1 mps 693 mmHg 60%
    15:00 +27°C° 0.7 mm 1 mps 693 mmHg 63%
    16:00 +26°C° 0.7 mm 1 mps 692 mmHg 67%
    17:00 +25°C° 0.5 mm 1 mps 692 mmHg 72%
    18:00 +23°C° 0.5 mm 1 mps 692 mmHg 77%
    19:00 +21°C° 0.5 mm 1 mps 692 mmHg 82%
    20:00 +20°C° 0.9 mm 1 mps 692 mmHg 84%
    21:00 +20°C° 0.9 mm 1 mps 692 mmHg 86%
    22:00 +19°C° 0.9 mm 1 mps 692 mmHg 89%
    23:00 +19°C° 0.8 mm 1 mps 692 mmHg 89%
    Show more